Regional Weather Roundup
Issued by NWS Green Bay, WI

Home | Current Version | Previous Version | Graphics & Text | Print | Product List | Glossary Off
Versions: 1 2 3 4 5 6 7 8 9 10 11 12 13 14 15 16 17 18 19 20 21 22 23 24 25 26 27 28 29 30 31 32 33 34 35 36 37 38 39 40 41 42 43 44 45 46 47 48 49 50

000
ASUS43 KGRB 301411
RWRGRB

NORTH-CENTRAL AND NORTHEAST WISCONSIN REGIONAL WEATHER ROUNDUP
NATIONAL WEATHER SERVICE GREEN BAY WI
900 AM CDT SAT MAY 30 2015

WIZ005-009-010>012-018-019-301500-
NORTH CENTRAL WISCONSIN

CITY           SKY/WX    TMP DP  RH WIND       PRES   REMARKS
IRONWOOD       CLOUDY    43  39  87 N14       30.19R
MANITOWISH WTR DRIZZLE   46  45  98 N13G20    30.17R
ARBOR VITAE    CLOUDY    49  47  91 NE15      30.15R
EAGLE RIVER    RAIN      48  45  91 NE15      30.15R
LAND O LAKES   RAIN      46  45  95 NE8G16    30.17R
RHINELANDER    LGT RAIN  49  46  90 NE10G17   30.14R FOG
PHILLIPS       CLOUDY    48  45  88 N12G17    30.15R
ANTIGO         CLOUDY    51  46  84 NE21      30.11R
TOMAHAWK       CLOUDY    50  48  93 NW9       30.14R FOG
MERRILL        CLOUDY    53  48  85 NE10      30.12S
$$

WIZ013-073-301500-
NORTHEAST WISCONSIN

CITY           SKY/WX    TMP DP  RH WIND       PRES   REMARKS
IRON MOUNTAIN  PTSUNNY   51  41  68 N14       30.13R
MARINETTE      CLOUDY    50  43  76 NE13      30.10R
OCONTO         CLOUDY    51  47  86 NE10G16   30.10R
$$

WIZ017-030-035>037-045-301500-
CENTRAL WISCONSIN

CITY           SKY/WX    TMP DP  RH WIND       PRES   REMARKS
MEDFORD        CLOUDY    51  47  87 N15       30.12S
WAUSAU         CLOUDY    54  48  80 VRB6G17   30.09R
MOSINEE        LGT RAIN  54  52  94 NE10      30.11R
MARSHFIELD     CLOUDY    54  49  83 N9        30.10R
WISC RAPIDS    CLOUDY    56  49  77 NE10      30.10R
STEVENS POINT  DRIZZLE   52  49  90 NE9       30.10R
WAUPACA        LGT RAIN  54  52  92 NE12G20   30.09S
SHAWANO        LGT RAIN  54  50  87 NE15      30.10S
CLINTONVILLE   RAIN      52  50  93 NE6       30.10R
$$

WIZ038-039-048-051-301500-
FOX VALLEY

CITY           SKY/WX    TMP DP  RH WIND       PRES   REMARKS
NWS GREEN BAY  LGT RAIN  52  49  89 N15       30.09R
APPLETON       LGT RAIN  50  50 100 NE14G21   30.08R FOG
OSHKOSH        LGT RAIN  53  50  89 NE15      30.06F FOG
FOND DU LAC    RAIN      53  51  93 NE12G22   30.07R FOG
$$

WIZ022-050-052-301500-
EAST CENTRAL WISCONSIN

CITY           SKY/WX    TMP DP  RH WIND       PRES   REMARKS
STURGEON BAY   CLOUDY    48  43  81 N16       30.12R
MANITOWOC      LGT RAIN  50  48  93 NE8G17    30.08R
SHEBOYGAN      LGT RAIN  49  46  90 NE22G33   30.06R
$$

LMZ563-521-522-541>543-301500-
LAKESHORE

STATION/POSITION TIME  TEMP    WIND        PRES    VSBY  WAVE
                       AIR SEA DIR/SP/G                  HT/PER
                 (UTC) (F)     (DEG/KT/KT) (MB)    (MI)  (FT/S)
SHEBOYGAN LKSHOR 1400   46     360/ 19/ 21 1018.4R
KEWAUNEE LKSHORE 1300   49      30/ 10/ 15 1017.5R
ALGOMA MARINA    1308          360/ 13/ 16   N/A
NORTHPORT PIER   1300   49     350/ 21     1019.0R
N MID LAKE BUOY  1350   40 37  330/  6/  6 1019.7R         2/ 4
SISTER BAY LKSHO 1318   49      30/ 14/ 18   N/A
CHAMBERS ISLAND  1300   50     350/ 17/ 19 1019.3R
MENOMINEE LKSHOR 1300   51      10/ 13/ 15 1019.4R
$$


USA.gov is the U.S. government's official web portal to all federal, state and local government web resources and services.